Location: *
(49.7115°N, 15.0136°E)
Time: 05:42:00
(UTC+00:00)

STARLINK-81 - Pass Details

Date: 27 February 2020
Orbit: 529 x 530 km, 53.0° (Epoch: 09 April)

Event Time Altitude Azimuth Distance (km) Brightness Sun altitude
Rises 17:08:25 0° 265° (W) 2,665 10.1 -5.7°
Reaches altitude 10° 17:10:39 10° 269° (W) 1,777 8.1 -6.0°
Maximum altitude 17:14:37 58° 349° (N) 622 3.9 -6.7°
Drops below altitude 10° 17:18:37 10° 70° (ENE) 1,780 5.6 -7.3°
Enters shadow 17:18:53 - 71° (ENE) 1,886 5.7 -7.4°
